Home   Weather   Linköping   Past weeks

Flag for Sweden Past Weather in Linköping, Sweden — Yesterday and Last 2 Weeks

Now
59 °F

Cool.


Feels Like: 57 °F
Forecast: 58 / 71 °F
Wind: 10 mph from West

Location: Linkoping / Saab

Current Time: Aug 31, 2016 at 12:51:00 AM

Latest Report: Aug 31, 2016 at 12:20 AM


Visibility: N/A

Pressure: 30.04 "Hg

Humidity: 88%

Dew Point: 55 °F

Location of LinköpingLocation

Past Weather in Linköping — Graph

°F

Linköping Temperature Yesterday

Maximum temperature yesterday: 66 °F (at 3:50 PM)
Minimum temperature yesterday: 50 °F (at 2:50 AM)
Average temperature yesterday: 59 °F

High & Low Weather Summary for the Past Weeks

 TemperatureHumidityPressure
High90 °F (Aug 26, 5:20 PM)100% (Aug 18, 3:50 PM)30.30 "Hg (Aug 18, 3:50 PM)
Low46 °F (Aug 28, 5:50 AM)31% (Aug 26, 2:50 PM)29.59 "Hg (Aug 29, 11:50 AM)
Average62 °F77%29.98 "Hg
* Reported Aug 15 11:20 PM — Aug 30 11:20 PM, Linköping, Weather by CustomWeather, © 2016

Note: Actual official high and low records may vary slightly from our data, if they occured in-between our weather recording intervals... More about our weather records

Advertising

Linköping Weather History for the Previous 24 Hours

Scroll right to see more
 ConditionsComfort  
Time TempWeatherWind HumidityBarometerVisibility
11:20 PM
Tue, Aug 30
61 °FPassing clouds.7 mph83%30.04 "HgN/A
10:50 PM61 °FPassing clouds.8 mph83%30.04 "HgN/A
10:20 PM61 °FPassing clouds.10 mph83%30.04 "HgN/A
9:50 PM63 °FPassing clouds.14 mph77%30.04 "HgN/A
9:20 PM63 °FPassing clouds.8 mph77%30.04 "HgN/A
8:50 PM63 °FPartly sunny.9 mph77%30.04 "HgN/A
8:20 PM63 °FPartly sunny.10 mph73%30.04 "HgN/A
7:50 PM63 °FPartly sunny.13 mph73%30.01 "HgN/A
7:20 PM64 °FPartly sunny.18 mph68%30.01 "HgN/A
6:50 PM64 °FPartly sunny.16 mph68%30.01 "HgN/A
6:20 PM64 °FPartly sunny.13 mph64%30.01 "HgN/A
5:50 PM66 °FPartly sunny.13 mph60%30.01 "HgN/A
5:20 PM66 °FPassing clouds.15 mph56%30.01 "HgN/A
4:50 PM66 °FPassing clouds.15 mph56%30.01 "HgN/A
4:20 PM66 °FPassing clouds.16 mph56%30.01 "HgN/A
3:50 PM66 °FPassing clouds.18 mph56%30.01 "HgN/A
3:20 PM64 °FPassing clouds.15 mph60%30.04 "HgN/A
2:50 PM64 °FPassing clouds.16 mph56%30.04 "HgN/A
2:20 PM64 °FPassing clouds.14 mph56%30.04 "HgN/A
1:50 PM64 °FPassing clouds.15 mph60%30.04 "HgN/A
1:20 PM64 °FPassing clouds.13 mph60%30.04 "HgN/A
12:50 PM64 °FPassing clouds.12 mph64%30.04 "HgN/A
11:50 AM63 °FPassing clouds.13 mph68%30.01 "HgN/A
11:20 AM63 °FPassing clouds.13 mph68%30.01 "HgN/A
10:50 AM61 °FPassing clouds.12 mph68%30.01 "HgN/A
10:20 AM59 °FPassing clouds.13 mph72%30.01 "HgN/A
9:50 AM59 °FSunny.10 mph77%30.01 "Hg10 mi
9:20 AM57 °FSunny.13 mph82%30.01 "Hg10 mi
8:50 AM55 °FPassing clouds.10 mph88%29.98 "HgN/A
8:20 AM55 °FPassing clouds.10 mph88%29.98 "HgN/A
7:50 AM54 °FSunny.9 mph88%29.98 "Hg10 mi
7:20 AM52 °FSunny.7 mph94%29.98 "Hg10 mi
6:50 AM50 °FClear.7 mph94%29.95 "Hg10 mi
6:20 AM50 °FClear.8 mph94%29.95 "Hg10 mi
5:50 AM50 °FClear.8 mph94%29.95 "Hg10 mi
5:20 AM50 °FCool.8 mph94%29.95 "HgN/A
4:50 AM50 °FCool.10 mph94%29.92 "HgN/A
4:20 AM50 °FCool.10 mph88%29.92 "HgN/A
3:50 AM50 °FCool.12 mph94%29.92 "HgN/A
3:20 AM50 °FPassing clouds.13 mph94%29.92 "HgN/A
2:50 AM50 °FPartly cloudy.13 mph94%29.89 "HgN/A
2:20 AM52 °FOvercast.16 mph88%29.89 "HgN/A
1:50 AM52 °FPartly cloudy.15 mph94%29.89 "HgN/A
1:20 AM52 °FMostly cloudy.15 mph94%29.86 "HgN/A
12:50 AM52 °FMostly cloudy.14 mph94%29.86 "HgN/A
12:20 AM52 °FMostly cloudy.13 mph94%29.86 "HgN/A
Weather by CustomWeather, © 2016

See weather overviewHow to use our weather pages